Tracking 25612 objects as of 19-May-2022
HD Live streaming from Space Station
objects crossing your sky now

SL-14 DEB

Track SL-14 DEB now!
10-day predictions


NORAD ID: 45303
Int'l Code: 1991-056AR
Perigee: 878.8 km
Apogee: 1,203.5 km
Inclination: 82.6 °
Period: 105.8 minutes
Semi major axis: 7412 km
RCS: Unknown
Launch date: August 15, 1991
Source: Commonwealth of Independent States (former USSR) (CIS)
Launch site: PLESETSK MISSILE AND SPACE COMPLEX (PKMTR)

Note: This is SATELLITE DEBRIS
aabbcc
Your satellite tracking list
Your tracking list is empty




NASA's NSSDC Master Catalog

Two Line Element Set (TLE):
1 45303U 91056AR  22138.56051131  .00015901  00000-0  18016-1 0  9997
2 45303  82.6311  78.2146 0219054  29.2420 332.0782 13.60464181110322
Source of the keplerian elements: AFSPC